Location: Olomouc
(49.5830°N, 17.2500°E)
Time: 21:23:15
(UTC+02:00)

ISS - Pass Details

Date: 07 May 2021
Orbit: 417 x 422 km, 51.6° (Epoch: 14 June)

Event Time Altitude Azimuth Distance (km) Brightness Sun altitude
Exits shadow 02:00:30 30° 93° (E) 789 -2.3 -21.7°
Drops below altitude 10° 02:02:32 10° 76° (ENE) 1,538 -0.5 -21.6°
Sets 02:04:36 0° 71° (ENE) 2,378 0.6 -21.4°
